loading
DOY 173 | 2024-06-21T03:30:55Z
Showing default

ELEKTRON 1, 746

Orbit data source: Space-Track

ELEKTRON 1, 746 is a payload satellite owned by OKB-1 (CIS) in HEO that was launched on Thu, 30 Jan 1964 UTC via a Vostok 8K72 launch vehicle from the Tyuratam Missile And Space Complex (TTMTR). Payloads include a variety of satellites, spacecraft, and rockets equipped with specific instruments for various scientific and technological missions. These include communications satellites like Starlink; space stations such as the ISS; scientific satellites like the Hubble; Earth observation satellites from companies like Planet Labs, Umbra, and HawkEye 360; GPS; miniature CubeSats for education and research; and military/defense satellites.

Loading next visibility...
Loading greatness...
ELEKTRON 1 details
NORAD ID746
COSPAR ID
1964-006A
Orbit
HEO
Last TLE update1 day ago
Origin
Flag of CISOKB-1 (CIS)
ManufacturerOKB-1
BusObject D
MotorSRM
Mass350 kg wet, 350 kg dry
Launch date (UTC)
1964-01-30 (60 years ago)
Launch vehicle
Vostok 8K72
Launch site
Tyuratam Missile And Space Complex (TTMTR)
Object type
Payload
Rocket body
Debris
Radar Cross Section2.8 m², Large (>1 m²)
Predictive object data (real-time)
Latitude-60.86545°
Longitude112.59162°
Altitude4,547.297 km
Speed5.657 km/s
Apparent Right ascension01h 24m 04s
Apparent Declination-54° 05' 13"
Sunlit
Object is in daylight
Predictive observer data (real-time)
Local Sidereal Time14:29:45
Azimuth147.489° SSE
Elevation-72.03°
Doppler factor1
Orbital elements
Apogee6,262.69 km
Perigee399.529 km
Semi-major axis9,709.246 km
Eccentricity0.301937
Inclination60.8733°
RAAN92.5507°
Arg. of periapsis41.2907°
True anomaly318.80189°
Mean anomaly338.0763°
Mean motion2.26864 °/min
BSTAR0.00091901
Period158.69 mins
Definitive object data (Epoch: 2024-06-19T22:58:48.722Z)
Latitude0.00002°
Longitude-160.80875°
Altitude813.696 km
Speed8.356 km/s
True Right ascension06h 10m 12s
True Declination0° 00' 00"
Sunlit
Object was in daylight at TLE epoch
TLE from 1 day ago
0 ELEKTRON 1
1 00746U 64006A   24171.95750836  .00003607  00000-0  91901-3 0  9990
2 00746  60.8733  92.5507 3019370  41.2907 338.0763  9.07348427  1106
Epoch: 2024-06-19T22:58Z
No data available

ELEKTRON 1 Visibility forecast

Observer location: 39.9160978°, -105.1181434, 0m alt.

ELEKTRON 1 is not visible in the next 10 days
Span
Click to sort rows by Start time (UTC) header in descending order
Start Az.
Max El. time (UTC)
Max El. Az.
Max El.
End time (UTC)
End Az.